EW9824 Weather Reports


Display with metric or nautical units.
time (UTC)temp
F
wind
direction
speed
MPH
gust
MPH
rain 1hr
in
rain 24hr
in
rain mn
in
humidity
%
barometer
mb
20260503194529 82 89 5.0 14.0 0.00 0.00 0.00 28 1016.3
20260503193041 81 69 8.0 21.0 0.00 0.00 0.00 29 1016.4
20260503191529 82 103 7.0 17.0 0.00 0.00 0.00 29 1016.5
20260503190029 81 120 7.0 15.0 0.00 0.01 0.00 30 1016.6
20260503184529 78 77 6.0 15.0 0.00 0.01 0.00 37 1016.8
20260503181530 76 350 4.0 8.0 0.00 0.01 0.00 42 1016.9
20260503180032 75 310 3.0 10.0 0.00 0.01 0.00 45 1017.1
20260503174530 74 353 3.0 7.0 0.00 0.01 0.00 47 1017.2
20260503173031 72 325 2.0 5.0 0.00 0.01 0.00 50 1017.4
20260503171530 70 303 2.0 7.0 0.00 0.01 0.00 51 1017.4
20260503170104 69 308 2.0 6.0 0.00 0.01 0.00 53 1017.5
20260503140109 46 180 1.0 3.0 0.00 0.01 0.00 87 1017.4
20260503081535 50 144 3.0 6.0 0.00 0.01 0.00 82 1017.5
20260503071531 53 173 2.0 6.0 0.00 0.01 0.00 77 1017.6
20260503054532 57 178 2.0 4.0 0.00 0.01 0.01 73 1017.4
20260503053032 56 147 3.0 5.0 0.00 0.01 0.01 74 1017.4
20260503050030 58 148 0.0 3.0 0.00 0.01 0.01 70 1017.3
20260503044543 60 157 0.0 2.0 0.00 0.01 0.01 65 1017.3
20260503041531 63 150 3.0 6.0 0.00 0.01 0.01 60 1017.0
20260503040040 65 163 3.0 6.0 0.00 0.01 0.01 58 1016.8
20260503031529 67 168 3.0 7.0 0.00 0.01 0.01 58 1016.2
20260503024529 68 160 2.0 5.0 0.00 0.01 0.01 61 1015.7
20260503023032 70 150 2.0 3.0 0.00 0.01 0.01 56 1015.6
20260503021528 72 135 2.0 4.0 0.00 0.01 0.01 51 1015.5
20260503014530 75 112 0.0 2.0 0.00 0.01 0.01 40 1015.4
20260503013037 76 53 1.0 5.0 0.00 0.01 0.01 37 1015.5
20260503011542 77 82 3.0 9.0 0.00 0.01 0.01 35 1015.5
20260503010032 78 9 3.0 9.0 0.00 0.01 0.01 33 1015.5
20260503004527 78 359 1.0 3.0 0.00 0.01 0.01 34 1015.4
20260503003029 77 64 4.0 11.0 0.00 0.01 0.01 34 1015.4
20260503001531 78 104 5.0 16.0 0.00 0.01 0.01 33 1015.5
20260503000103 78 89 5.0 12.0 0.00 0.01 0.01 32 1015.6
20260502233107 79 75 3.0 10.0 0.00 0.01 0.01 32 1015.8
20260502231530 80 29 4.0 14.0 0.00 0.01 0.01 31 1016.0
20260502224530 80 99 4.0 12.0 0.00 0.01 0.01 31 1016.4
20260502223104 80 93 7.0 18.0 0.00 0.01 0.01 31 1016.5
20260502221531 81 98 9.0 18.0 0.00 0.01 0.01 32 1016.6
20260502220035 79 107 6.0 15.0 0.00 0.01 0.01 37 1016.7
20260502214608 77 332 4.0 8.0 0.00 0.01 0.01 43 1016.8
20260502213031 75 327 4.0 10.0 0.00 0.01 0.01 46 1017.0
20260502211533 75 328 5.0 8.0 0.00 0.01 0.01 49 1017.1
20260502210030 73 286 3.0 6.0 0.00 0.01 0.01 53 1017.3
20260502204530 72 292 2.0 7.0 0.00 0.01 0.01 54 1017.4
20260502203031 71 307 4.0 8.0 0.00 0.01 0.01 56 1017.3
20260502201645 72 306 4.0 8.0 0.00 0.01 0.01 53 1017.4
20260502200028 72 244 2.0 4.0 0.01 0.01 0.01 56 1017.6